Starlink 1672

operational
NORAD ID: 46537 Int'l Des: 2020-070 Owner: SPXS Country: US Constellation: starlink
LEOCIRCULARSTARLINK_TYPE

About Starlink 1672

Description loading...

Live Position

Loading 3D Globe...

Upcoming Passes

Altitude History

Altitude vs Time

uPlot chart will show altitude changes over time

Two-Line Element Set

1 46537U 20070F 25304.91668980 .00003317 00000-0 10062-3 0 9991
2 46537 53.0543 32.2898 0001594 48.5475 137.0459 15.37071456 5846
Epoch: Oct 31, 2025 • Age: 17 hours

Current Status

Altitude 460.1 km
Velocity 7.64 km/s
Sub-Earth Point 50.71°N, 120.46°W
Launch Date Oct 6, 2020
Age 5 years
Type internet

Technical Details

Classification Payload
Mass 260.00 kg
Dry Mass 248.00 kg
Total Mass 260.00 kg
Length 0.20 m
Diameter 2.80 m
Span 9.00 m
Shape Box + pan
Manufacturer SPXS
Bus Type Starlink
Phase Status In Orbit
Owner/State SPXS/US

Large Constellations

Loading constellations...